Tracking 18840 objects as of 19-November-2017
HD Live streaming from Space Station
objects crossing your sky now

AMC-10 (GE-10)

Track AMC-10 (GE-10) now!
AMC-10 (GE-10) is classified as:


NORAD ID: 28154
Int'l Code: 2004-003A
Perigee: 35,790.9 km
Apogee: 35,797.4 km
Inclination: 0.0 °
Period: 1,436.1 minutes
Semi major axis: 42165 km
RCS: 21.2115 m2 (large)
Launch date: February 5, 2004
Source: SOCIETE EUROPEENNE DES SATELLITES (SES)
Launch site: AIR FORCE EASTERN TEST RANGE (AFETR)

24 C-band transponders.
aabbcc
Your satellite tracking list
Your tracking list is empty




NASA's NSSDC Master Catalog

Two Line Element Set (TLE):
1 28154U 04003A   17322.58901602 +.00000088 +00000-0 +00000-0 0  9999
2 28154 000.0124 321.8922 0000774 210.2276 322.7505 01.00270394050504
Source of the keplerian elements: AFSPC